User: anonymous   Login
Location: Unspecified
(0.0000°N, 0.0000°E)
Time: 16:09:41
(UTC+00:00)
Language:

Vela 3B - Orbit

View from above orbital plane
View from above orbital plane
View from above satellite
View from above satellite

Ground track
Ground track

The orbit data is extracted from the following two-line orbital elements,

1 01459U 65058B   17306.86866705 -.00000859  00000-0  00000+0 0  9998
2 01459  13.1237  53.9302 4776977 318.1066   0.6551  0.21446757 41303
Epoch (UTC): 02 November 2017 20:50:52
Eccentricity: 0.4776977
inclination: 13.1237°
perigee height: 55198 km
apogee height: 167832 km
right ascension of ascending node: 53.9302°
argument of perigee: 318.1066°
revolutions per day: 0.21446757
mean anomaly at epoch: 0.6551°
orbit number at epoch: 4130

The dashed part of the orbit path shows where the satellite is in the earth's shadow,  

DLR